Regional Weather Roundup
Issued by NWS Charleston, SC

Current Version | Previous Version | Graphics & Text | Print | Product List | Glossary On
Versions: 1 2 3 4 5 6 7 8 9 10 11 12 13 14 15 16 17 18 19 20 21 22 23 24 25 26 27 28 29 30 31 32 33 34 35 36 37 38 39 40 41 42 43 44 45 46 47 48 49 50
000
ASUS42 KCHS 181427
RWRCHS

Regional Weather Roundup
National Weather Service Charleston SC
900 AM EST MON DEC 18 2017

NOTE: "fair" indicates few or no clouds below 12,000 feet with no
significant weather and/or obstructions to visibility.

Not all stations are quality controlled. Use data with caution,
especially dewpoint observations.

SCZ027-030-031-034>040-042>050-181500-
...Southeast South Carolina...

CITY           SKY/WX    TMP DP  RH WIND       PRES   REMARKS
N Charleston   PTSUNNY   61  59  93 W7        30.20R
Waterfront Prk   N/A     62  59  90 CALM      30.05R
Mount Pleasant CLOUDY    64  61  88 W5        30.20R
Johns Island   CLOUDY    64  61  88 SW7       30.21R
Pinopolis        N/A     57  57 100 SW5       30.10R
Moncks Corner  FAIR      63  59  88 SW3       30.20R
Summerville    CLOUDY    61  59  94 SW3       30.21R
Beaufort MCAS  CLOUDY    61  61 100 SW8       30.21R
Beaufort Arpt  CLOUDY    61  59  94 SW6       30.21S FOG
Hilton Head Is CLOUDY    61  61 100 S7        30.22R
Walterboro     CLOUDY    61  57  88 SW5       30.22R
Allendale      CLOUDY    61  55  82 CALM      30.19F

...Southern Midlands and Pee Dee...

CITY           SKY/WX    TMP DP  RH WIND       PRES   REMARKS
Georgetown     CLOUDY    63  61  94 W5        30.20R
Kingstree      CLOUDY    55  52  88 CALM      30.20R
Orangeburg     CLOUDY    57  51  80 CALM      30.19S
Barnwell         N/A     61  55  82 CALM      30.21R
Aiken          CLOUDY    54  43  66 SW7       30.23S
Manning        CLOUDY    59  46  63 MISG      30.20R
Columbia       CLOUDY    56  44  64 CALM      30.19R
Sumter         CLOUDY    55  45  68 W6        30.17R
Florence       PTSUNNY   53  45  74 W3        30.20R
Myrtle Beach   PTSUNNY   61  57  88 W7        30.20
N Myrtle Beach CLOUDY    61  56  83 W6        30.18R

$$

GAZ063-065-086>088-099>101-113>116-118-119-134>141-150-181500-
...Southeast Georgia...

CITY           SKY/WX    TMP DP  RH WIND       PRES   REMARKS
Savannah Arpt  CLOUDY    60  60 100 SW7       30.22S
Hunter AAF     CLOUDY    61  59  94 SW7       30.20R
Fort Stewart   CLOUDY    58  56  95 CALM      30.20R
Statesboro     CLOUDY    61  57  87 CALM      30.22R
Sylvania       CLOUDY    60  58  92 CALM      30.21S
Claxton        PTSUNNY   59  58  97 CALM      30.21S FOG

...CSRA, Central and far Southeast Georgia...

CITY           SKY/WX    TMP DP  RH WIND       PRES   REMARKS
Thomson        CLOUDY    53  46  78 W3        30.25S
Augusta-Bush   CLOUDY    56  44  64 CALM      30.19S
Augusta-Daniel CLOUDY    54  44  69 CALM      30.20S
Swainsboro     CLOUDY   N/A N/A N/A CALM      30.21S
Vidalia        CLOUDY    61  61 100 CALM      30.21S FOG
Eastman        HAZE      64  58  80 CALM      30.23R VSB 1
Hazlehurst     FOG       63  61  94 CALM      30.20S VSB 1
Alma           CLOUDY    62  61  96 CALM      30.22R FOG
Waycross       CLOUDY    64  61  91 SW3       30.23R FOG
Jesup          CLOUDY    61  57  88 CALM      30.23R
Baxley         FOG       59  59 100 CALM      30.22R VSB 1/2
Brunswick      CLOUDY    63  59  88 SW6       30.25R
Saint Simons   CLOUDY    64  62  93 SW6       30.23R

$$

SCZ027-028-034-036>038-045-046-048>050-GAZ119-141-181500-
...Lake and Supplemental Coastal Observations...

STATION/POSITION TIME  TEMP    WIND        PRES    WAVE   SWELL
                       AIR SEA DIR/SP/G            HT/PER HT/PER/DIR
                 (UTC) (F)     (DEG/KT/KT) (MB)    (FT/S) (FT/S/D)
Winyah Bay       1330   58     200/  3     1022.0S
Lake Murray      1350   50      CALM  /  1 1021.7
ACE Basin NERRS  1345   60        CALM     1023.0R
Fort Pulaski     1400   58 54  190/  3/  3 1023.3
Sapelo Island    1400   60     210/  3     1024.0

$$

ANZ835-935-AMZ111-154-330-350-352-354-370-450-454-472-181500-
...C-MAN and Buoy Observations...

STATION/POSITION TIME  TEMP    WIND        PRES    WAVE   SWELL
                       AIR SEA DIR/SP/G            HT/PER HT/PER/DIR
                 (UTC) (F)     (DEG/KT/KT) (MB)    (FT/S) (FT/S/D)
Buoy 41004       1410   70 73  240/ 14/ 16 1022.4
Buoy 41008       1350   62 59  200/  6/  8 1023.2R   2/10   2/100/10
Folly Beach CMAN 1400   61     230/  5/  8 1023.1R
Capers Nearshore 1408   55 56  240/  8/ 10 1022.2R


STATION/POSITION TIME  TEMP    WIND        PRES    WAVE   SWELL
                       AIR SEA DIR/SP/G            HT/PER HT/PER/DIR
                 (UTC) (F)     (DEG/KT/KT) (MB)    (FT/S) (FT/S/D)
5E St. Marys GA  1330      61                N/A     2/11
Frying Pan Buoy  1410   69 70  260/ 16/ 17 1021.9
Buoy 41025       1410   61 72  290/ 10/ 14 1022.5
Cape Lookout NC  1400          290/  2/  2 1022.4S
Buoy 41002       1350   72 74  220/ 16/ 19 1023.1R   3/ 9   2/120/ 9
Buoy 41010       NOT AVBL
St Augustine FL  1400   66 64  220/  5/  6 1024.6R


$$



USA.gov is the U.S. government's official web portal to all federal, state and local government web resources and services.